Regional Weather Roundup
Issued by NWS

Current Version | Previous Version | Text Only | Print | Product List | Glossary On
Versions: 1 2 3 4 5 6 7 8 9 10 11 12 13 14 15 16 17 18 19 20 21 22 23 24 25 26 27 28 29 30 31 32 33 34 35 36 37 38 39 40 41 42 43 44 45 46 47 48 49 50
000
ASUS44 KLUB 191510
RWRTX
WEST TEXAS WEATHER ROUNDUP
NATIONAL WEATHER SERVICE LUBBOCK TX
1000 AM CDT SAT APR 19 2014

NOTE: "FAIR" INDICATES FEW OR NO CLOUDS BELOW 12,000 FEET WITH NO
SIGNIFICANT WEATHER AND/OR OBSTRUCTIONS TO VISIBILITY.

TXZ004-006>008-010-012-014-016-OKZ002-191600-
TEXAS PANHANDLE/OKLAHOMA PANHANDLE

CITY           SKY/WX    TMP DP  RH WIND       PRES   REMARKS
AMARILLO       CLOUDY    58  44  60 S16       30.10F
BORGER         CLOUDY    61  44  53 S14G24    30.07S
CANADIAN       PTSUNNY   64  50  61 S18G28    30.08S
DALHART        CLOUDY    61  45  55 SW12      30.06F
DUMAS          CLOUDY    58  44  58 S12       30.06F
GUYMON         CLOUDY    63  46  54 S20       30.00S
HEREFORD       CLOUDY    62  45  53 S14       30.10F
PAMPA          CLOUDY    59  46  60 S21G26    30.10S
PERRYTON       PTSUNNY   63  48  59 S20G30    30.05F
$$

TXZ026-029-035-045-048-191600-
SOUTHERN PANHANDLE/SOUTH PLAINS/ROLLING PLAINS

CITY           SKY/WX    TMP DP  RH WIND       PRES   REMARKS
CHILDRESS      CLOUDY    65  51  60 S18G25    30.13F
SEMINOLE       CLOUDY    60  49  67 S12       30.11S
LUBBOCK        PTSUNNY   63  50  62 S21G26    30.10F
PLAINVIEW      MOSUNNY   61  49  64 S12       30.10F
SNYDER         MOSUNNY   62  55  76 S20       30.14S
$$

TXZ052-054-060>062-072-078-127-140-154-169-191600-
PERMIAN BASIN/CONCHO VALLEY/BIG COUNTRY/EDWARDS PLATEAU

CITY           SKY/WX    TMP DP  RH WIND       PRES   REMARKS
ABILENE        MOSUNNY   68  52  56 S18G25    30.14F
BIG SPRING     PTSUNNY   65  53  64 SE21      30.13F
BRADY          SUNNY     68  54  60 S14       30.16F
BROWNWOOD      SUNNY     66  55  68 S10       30.18R
JUNCTION       PTSUNNY   66  53  63 S12       30.16F
MIDLAND        CLOUDY    65  55  70 S25G33    30.09F
ODESSA         CLOUDY    64  55  72 S21G32    30.10S
SAN ANGELO     SUNNY     68  54  60 S14       30.13F
SONORA         PTSUNNY   66  52  59 S15G22    30.17R
SWEETWATER     MOSUNNY   65  53  64 S23       30.17R
WINK           CLOUDY    64  53  67 SE15      30.04S
$$

TXZ055-058-074-075-080-082-191600-
FAR WEST/SOUTHWEST MOUNTAINS/TRANS PECOS

CITY           SKY/WX    TMP DP  RH WIND       PRES   REMARKS
ALPINE         MOSUNNY   62  48  60 N5        30.15F
DRYDEN           N/A     72  58  61 E18       30.07R
EL PASO        CLOUDY    66  50  56 NE6       30.05F
FORT STOCKTON  CLOUDY    63  54  72 SE14G22   30.08S
MARFA          MOSUNNY   61  48  63 E6        30.15S
PECOS          CLOUDY    65  50  58 SE5       30.04R
PRESIDIO       FAIR      70  51  50 NE12      30.04R
$$

TXZ014-016-019-021>030-083-191600
TEXAS TECH WEST TEXAS MESONET/TEXAS PANHANDLE/NORTHERN SOUTH PLAINS

CITY           SKY/WX    TMP DP  RH WIND       PRES   REMARKS
ABERNATHY 5ENE   N/A     63  49  60 S18       30.11S
AMARILLO 9NNE    N/A     61  45  55 S16       30.07F
AMARILLO 7SSE    N/A     58  44  60 S15       30.11S
AMHERST 1NE      N/A     62  47  57 S14       30.12S
BOOTLEG 11WNW    N/A     55  43  64 S16       30.10F
CANADIAN 6E      N/A     63  49  60 S23       30.07S
CAPROCK CYN SP   N/A     60  49  67 SE9       30.12F
CHILDRESS 2NNE   N/A     64  51  62 S17       30.13S
CLARENDON 2WSW   N/A     58  47  67 S15       30.11F
CLAUDE 12SW      N/A     56  45  66 S9        30.11S
DIMMITT 2NE      N/A     60  46  60 S15       30.11S
FLOYDADA 2NNE    N/A     62  48  61 S17       30.12S
FRIONA 2NE       N/A     59  46  61 S13       30.10F
GOODLETT 3W      N/A     66  51  57 S14       30.13F
HART 3N          N/A     60  47  63 S12       30.12S
HEREFORD 2NW     N/A     59  44  58 S15       30.10F
MCLEAN 1E        N/A     57  49  75 S12       30.11S
MEMPHIS 1NE      N/A     61  49  66 SE7       30.13F
MULESHOE 2SSW    N/A     62  47  58 S15       30.11S
OLTON 6S         N/A     61  46  58 S10       30.12S
PALO DURO SP     N/A     56  43  61 SE9       30.12S
PAMPA 2E         N/A     59  48  67 S16       30.10S
PLAINVIEW 1S     N/A     61  49  65 S14       30.11F
SILVERTON 7ESE   N/A     60  47  63 S16       30.12F
TULIA 2ENE       N/A     60  48  64 S13       30.12S
TURKEY 2WSW      N/A     60  49  68 S10       30.11F
UMBARGER 3NNE    N/A     60  45  57 S20       30.10S
$$

TXZ033>036-039>041-045>048-191600
TEXAS TECH WEST TEXAS MESONET/SOUTH PLAINS

CITY           SKY/WX    TMP DP  RH WIND       PRES   REMARKS
AIKEN 3WSW       N/A     62  49  62 S17       30.12F
ANDREWS 2NE      N/A     62  50  65 SE17      30.10S
ANTON 6SSW       N/A     62  50  63 S14       30.11S
BROWNFIELD 2S    N/A     60  49  66 S17       30.12R
DENVR CTY 7WNW   N/A     60  47  63 S12       30.10F
GAIL 2ESE        N/A     63  51  64 SE17      30.11F
LAMESA 2SE       N/A     61  52  73 S16       30.12R
LEVELLAND 4S     N/A     60  47  61 S14       30.12S
LUBBOCK 3WNW     N/A     62  49  61 S16       30.12R
MORTON 1ENE      N/A     60  47  61 SE12      30.12S
ODONNELL 1N      N/A     61  49  65 S12       30.12R
PLAINS 3N        N/A     58  46  64 SE10      30.11F
RALLS 1SE        N/A     62  49  62 S17       30.12F
REESE CENTER     N/A     61  49  65 S20       30.12R
SEAGRAVES 1SW    N/A     60  49  67 SE14      30.10S
SEMINOLE 2NNE    N/A     61  49  63 SE15      30.10S
SLATON 2NE       N/A     61  49  65 S21       30.11F
SNYDER 3E        N/A     63  54  72 S21       30.13R
SUNDOWN 8SW      N/A     58  46  63 S13       30.11S
TAHOKA 3NNE      N/A     62  51  66 S20       30.11F
WOLFFORTH 6SSW   N/A     61  49  65 S17       30.12R
$$

TXZ031-032-036>038-042>044-191600-
TEXAS TECH WEST TEXAS MESONET/ROLLING PLAINS

CITY           SKY/WX    TMP DP  RH WIND       PRES   REMARKS
ASPERMONT 3NE    N/A     68  53  57 S9        30.13F
FLUVANNA 3WNW    N/A     62  52  70 S21       30.11F
GRAHAM 5SSW      N/A     62  51  66 SE17      30.11R
GUTHRIE 10WSW    N/A     63  51  65 S9        30.13F
HASKELL 1NW      N/A     64  51  63 S10       30.14F
JAYTON 1SSE      N/A     66  53  62 S14       30.12F
KNOX CITY 3NW    N/A     66  51  57 S12       30.14F
LK A HENRY 1NW   N/A     65  53  65 S16       30.11F
NORTHFIELD 1S    N/A     62  51  69 S14       30.12F
ODELL 4ENE       N/A     64  53  68 S8        30.16S
PADUCAH 10SW     N/A     62  51  67 S14       30.13F
POST 1NE         N/A     63  50  63 SE14      30.11S
RRING SPRGS 3N   N/A     62  52  68 S14       30.12F
SEYMOUR 3NW      N/A     67  53  60 S15       30.16S
SPUR 1W          N/A     61  50  66 SE8       30.10F
WEINERT 2NNE     N/A     65  52  61 S17       30.15S
WHITE RVR 6NE    N/A     60  49  66 SE8       30.11F
$$

TXZ052-054-060>062-072-078-127-140-154-169-191600-
TEXAS TECH WEST TEXAS MESONET/PERMIAN BASIN/
CONCHO VALLEY/BIG COUNTRY/EDWARDS PLATEAU

CITY           SKY/WX    TMP DP  RH WIND       PRES   REMARKS
COYANOSA 2N      N/A     67  53  59 SE14      30.06F
JUNCTION 1SSW    N/A     66  53  63 S12       30.17F
MERTZON 3NNE     N/A     68  53  59 S20       30.14S
SAN ANGELO 7NW   N/A     67  52  57 S21       30.14F
STRLNG CT 4WSW   N/A     65  54  68 SE13      30.14S
ST LAWRNCE 5SW   N/A     64  54  68 S21       30.12S
SWEETWATR 11SW   N/A     64  53  66 S15       30.15S
WALL 1E          N/A     66  52  60 S21       30.14S
$$

TXZ055-058-074-075-080-082-191600-
TEXAS TECH WEST TEXAS MESONET/FAR WEST/SOUTHWEST MOUNTAINS/TRANS PECOS

CITY           SKY/WX    TMP DP  RH WIND       PRES   REMARKS
PRSMN GAP BBNP   N/A     63  52  66 NE15      30.08S
$$



USA.gov is the U.S. government's official web portal to all federal, state and local government web resources and services.